Home   Weather   Reston   Past weeks
Flag for USA

Past Weather in Reston, Virginia, USA — Yesterday and Last 2 Weeks

Now
50 °F

Passing clouds.


Feels Like: 50 °F
Forecast: 66 / 50 °F
Wind: No wind

Location: Washington-Dulles International Airport

Current Time: Apr 6, 2020 at 6:06:01 am

Latest Report: Apr 6, 2020 at 4:52 am


Visibility: 10 mi

Pressure: 30.02 "Hg

Humidity: 89%

Dew Point: 47 °F

Location of RestonLocation

Past Weather in Reston — Graph

°F

Reston Temperature Yesterday

Maximum temperature yesterday: 70 °F (at 5:55 pm)
Minimum temperature yesterday: 43 °F (at 1:52 am)
Average temperature yesterday: 57 °F

High & Low Weather Summary for the Past Weeks

 TemperatureHumidityPressure
High74 °F (Mar 30, 2:52 pm)97% (Mar 28, 8:52 pm)30.59 "Hg (Mar 28, 8:52 pm)
Low36 °F (Mar 24, 5:52 am)21% (Mar 30, 2:52 pm)29.74 "Hg (Mar 29, 5:52 pm)
Average51 °F70%30.00 "Hg
* Reported Mar 22 4:18 am — Apr 6 4:52 am, Reston. Weather by CustomWeather, © 2020

Note: Actual official high and low records may vary slightly from our data, if they occured in-between our weather recording intervals... More about our weather records

Reston Weather History for the Previous 24 Hours

Scroll right to see more
 ConditionsComfort  
Time TempWeatherWind HumidityBarometerVisibility
4:52 am
Mon, Apr 6
50 °FPassing clouds.No wind89%30.02 "Hg10 mi
3:52 am52 °FPassing clouds.No wind89%30.02 "Hg10 mi
2:52 am55 °FMostly cloudy.No wind87%30.02 "Hg10 mi
1:52 am56 °FOvercast.No wind87%30.02 "Hg10 mi
12:52 am58 °FLight rain. Mostly cloudy.No wind78%30.02 "Hg10 mi
11:52 pm
Sun, Apr 5
58 °FMostly cloudy.6 mph72%30.02 "Hg10 mi
10:52 pm59 °FMostly cloudy.3 mph69%30.02 "Hg10 mi
10:31 pm60 °FOvercast.No wind67%30.03 "Hg10 mi
9:52 pm63 °FLight rain. Overcast.No wind56%30.03 "Hg10 mi
8:52 pm63 °FOvercast.6 mph56%30.01 "Hg10 mi
7:52 pm65 °FOvercast.3 mph49%30.00 "Hg10 mi
6:52 pm67 °FPartly sunny.3 mph44%29.99 "Hg10 mi
5:55 pm70 °FScattered clouds.No wind41%29.99 "Hg10 mi
4:52 pm69 °FScattered clouds.3 mph41%29.99 "Hg10 mi
3:52 pm69 °FPartly sunny.No wind41%30.01 "Hg10 mi
2:59 pm67 °FPartly sunny.No wind44%30.02 "Hg10 mi
1:52 pm67 °FPartly sunny.5 mph45%30.05 "Hg10 mi
12:52 pm64 °FBroken clouds.6 mph52%30.06 "Hg10 mi
11:52 am61 °FBroken clouds.8 mph58%30.09 "Hg10 mi
10:52 am58 °FPartly sunny.8 mph62%30.09 "Hg10 mi
9:52 am55 °FPartly sunny.7 mph69%30.09 "Hg10 mi
8:52 am51 °FPartly sunny.6 mph80%30.09 "Hg10 mi
7:52 am46 °FPartly sunny.3 mph89%30.08 "Hg10 mi
6:52 am43 °FScattered clouds.No wind89%30.06 "Hg10 mi
Weather by CustomWeather, © 2020

See weather overview

Advertising